STAR ONE D1 (41904 NORAD) Tracking and Keplerian Element Data

This shows tracking and keplerian element data for the satellite.

Feedback or suggestion? Click here.




ElementValue
Catalog41904
NameSTAR ONE D1
Epoch Orbit728
Epoch Day348.00374279
Epoch Year2018
RAAN89.3014
Inclination0.04
Eccentricity0.0002914
Argument of Perigee183.3492
Mean Anonmoly87.3287
Mean Motion1.00272302
Decay Rate-2.01E-06
L11 41904U 16082B 18348.00374279 -.00000201 00000-0 00000-0 0 9995
L22 41904 0.0400 89.3014 0002914 183.3492 87.3287 1.00272302 7284

Live tracking and technical data element details for STAR ONE D1 (NORAD 41904). STAR ONE D1 can be tracked NOW for your location showing map with azimuth and elevation plus other details from your city location.

Track the satellite on the map from your city or location and see movement details for azimuth, elevation, latitude, longitude, range, height, and movement on the map or in text.







IsCatalogInMostPopularTable: catalog: 41904, numindb: 124
Update: records affected: 1



GetName: 41904 STAR ONE D1

Hit Count: updated at: Sat, 15 Dec 2018 14:06:14 GMT